Preview of NWS' New Version of Forecast
This preview is not operational and should not be used for support decisions.
Latest weather observations around

Los Angeles, Los Angeles International Airport (KLAX)

Using International System of Units (Switch to English Units)
Date/ Time (PDT) Wind (kph) Vis. (km) Weather Sky Cond. Temp (°C) Rel. Humidity Wind Chill (°C) Heat Index (°C) Pressure Precip. (cm)
Air Dwpt 6 hour Altimeter (hPa) Sea level (hPa) 1 hr 3 hr 6 hr
Max Min
Apr 20 18:53 WSW 18 16.09 Mostly Cloudy FEW014 BKN048 15 11     75%     1015.2 1015      
Apr 20 17:53 W 22 16.09 Mostly Cloudy SCT014 BKN047 15 11     75%     1014.9 1014.9      
Apr 20 16:53 W 26 16.09 Mostly Cloudy FEW020 BKN038 BKN180 17 11     70%     1015.2 1015      
Apr 20 15:53 WSW 21 16.09 Mostly Cloudy SCT025 BKN038 BKN180 17 11     65%     1015.2 1015      
Apr 20 14:53 W 17 16.09 Mostly Cloudy FEW017 SCT025 BKN038 18 11     65%     1015.6 1015.5      
Apr 20 13:53 W 11 16.09 Cloudy FEW016 BKN025 OVC038 17 11     70%     1016.3 1016.1      
Apr 20 12:53 SW 13 16.09 Cloudy SCT020 BKN026 OVC035 16 11     72%     1016.6 1016.3      
Apr 20 11:53 W 15 16.09 Cloudy FEW010 SCT016 OVC025 15 11     75%     1016.6 1016.4      
Apr 20 10:53 W 17 16.09 Cloudy FEW010 BKN019 OVC024 14 11     81%     1016.6 1016.3      
Apr 20 09:53 WSW 15 16.09 Cloudy FEW013 FEW018 OVC025 15 11     78%     1015.9 1015.7      
Apr 20 08:53 ESE 9 16.09 Cloudy FEW018 OVC025 16 9     67%     1014.9 1014.9      
Apr 20 07:53 E 13 16.09 Cloudy FEW016 OVC022 15 9     69%     1014.6 1014.5      
Apr 20 06:53 ESE 5 16.09 Cloudy OVC021 15 10     72%     1014.2 1014.1      
Apr 20 05:53 Calm 14.48 Cloudy OVC022 14 10     75%     1013.6 1013.5      
Apr 20 04:53 8 14.48 Cloudy OVC018 14 10     75%     1013.2 1013.1      
Apr 20 03:53 NE 5 14.48 Cloudy OVC014 14 11     81%     1013.9 1013.6      
Apr 20 02:53 Calm 14.48 Cloudy OVC012 14 11     81%     1014.2 1013.9      
Apr 20 01:53 Calm 14.48 Cloudy OVC012 14 11     81%     1014.2 1014      
Apr 20 00:53 8 14.48 Cloudy OVC010 14 11     83%     1014.6 1014.5      
Apr 19 23:53 WSW 13 9.66 Haze BKN008 OVC010 14 11     83%     1014.6 1014.3      
Apr 19 22:53 WSW 13 8.05 Fog/Mist OVC008 14 12     87%     1013.9 1013.8      
Apr 19 21:53 WSW 11 8.05 Fog/Mist BKN007 OVC010 14 12     87%     1013.9 1013.7      
Apr 19 20:53 W 11 8.05 Fog/Mist BKN005 OVC008 13 12     90%     1013.6 1013.3      
Apr 19 20:17 W 5 4.02 Fog/Mist OVC004 13 12     90%     1012.9        
Apr 19 19:53 WSW 11 16.09 Cloudy OVC006 13 11     87%     1012.9 1012.7      
Apr 19 18:53 WSW 18 16.09 Cloudy OVC008 14 11     83%     1012.9 1012.6      
Apr 19 17:53 SW 17 12.87 Cloudy OVC007 14 12     87%     1012.5 1012.2      
Apr 19 16:53 WSW 26 16.09 Cloudy OVC008 14 11     81%     1012.9 1012.6      
Apr 19 15:53 WSW 28 16.09 Cloudy OVC008 15 12     81%     1012.9 1012.9      
Apr 19 14:53 W 26 11.27 Mostly Cloudy BKN008 BKN140 BKN180 16 12     75%     1013.6 1013.6      
Apr 19 13:53 W 22 11.27 Mostly Cloudy BKN008 BKN140 BKN180 17 12     75%     1013.9 1013.7      
Apr 19 13:27 WSW 24 11.27 Mostly Cloudy BKN008 BKN140 BKN250 16 12     78%     1013.9        
Apr 19 12:53 W 22 11.27 Mostly Cloudy FEW006 SCT012 BKN160 BKN250 17 12     75%     1013.9 1013.8      
Apr 19 11:53 WSW 11 11.27 Mostly Cloudy SCT006 BKN140 BKN250 16 12     80%     1014.2 1014.2      
Apr 19 11:48 WSW 13 11.27 Mostly Cloudy SCT006 BKN140 BKN250 15 13     88%     1014.6        
Apr 19 10:53 W 17 6.44 Fog/Mist BKN006 OVC140 15 12     83%     1015.2 1015      
Apr 19 09:53 W 18 4.02 Fog/Mist BKN008 OVC140 15 12     83%     1015.2 1015      
Apr 19 09:19 WSW 13 4.02 Fog/Mist BKN008 OVC140 16 13     83%     1014.9        
Apr 19 08:53 W 13 4.83 Haze SCT007 BKN140 BKN180 16 12     80%     1015.2 1015.1      
Apr 19 08:09 Calm 4.83 Fog/Mist SCT007 BKN140 BKN180 16 13     86%     1014.9        
Apr 19 07:53 Calm 4.02 Fog/Mist BKN007 BKN140 15 13     90%     1015.2 1015      
Apr 19 06:53 E 5 4.02 Fog/Mist BKN007 BKN140 14 12     89%     1014.9 1014.7      
Apr 19 05:53 Calm 4.02 Fog/Mist FEW002 SCT004 BKN006 BKN160 14 12     89%     1014.9 1014.6      
Apr 19 04:53 E 8 4.02 Fog/Mist FEW001 BKN005 OVC007 14 12     87%     1015.2 1014.9      
Apr 19 04:51 ESE 9 4.02 Fog/Mist FEW001 BKN005 OVC007 14 12     88%     1015.2        
Apr 19 03:53 ENE 9 4.83 Fog/Mist VV004 14 12     89%     1015.6 1015.2      
Apr 19 03:44 Calm 4.83 Fog/Mist VV004 14 12     89%     1015.6        
Apr 19 02:53 W 9 4.02 Fog/Mist VV003 14 12     89%     1016.3 1016      
Apr 19 01:53 W 11 4.02 Fog/Mist VV003 14 12     89%     1017.3 1017      
Apr 19 00:53 WSW 13 3.22 Fog/Mist VV003 14 13     93%     1017.6 1017.3      
Apr 18 23:53 WSW 21 2.01 Fog/Mist VV002 14 13     90%     1018 1017.6      
Apr 18 23:36 WSW 18 1.61 Fog/Mist VV002 14 13     90%     1017.6        
Apr 18 23:12 WSW 17 0.4 Fog VV002 14 13     90%     1017.3        
Apr 18 23:06 SW 11 0.8 Fog SKC BKN003 15 13     90%     1017.3        
Apr 18 22:53 S 11 14.48 Patchy Fog SKC FEW008 SCT060 BKN200 16 13     86%     1017.3 1016.8      
Apr 18 22:48 SSW 9 14.48 Patchy Fog SKC FEW008 SCT060 BKN200 16 13     82%     1017.3        
Apr 18 21:53 SSW 5 16.09 Mostly Clear FEW060 16 13     86%     1016.6 1016.4      
Apr 18 20:53 WSW 13 16.09 Mostly Clear FEW060 16 13     86%     1016.9 1016.6      
Apr 18 19:53 WSW 13 16.09 Partly Cloudy FEW070 SCT150 16 13     83%     1016.3 1016      
Apr 18 18:53 WSW 22 16.09 Partly Cloudy FEW070 SCT180 17 13     75%     1015.9 1015.8      
Apr 18 17:53 W 21 16.09 Partly Cloudy FEW090 SCT180 19 12     65%     1015.9 1015.9      
Apr 18 16:53 W 24 16.09 Partly Cloudy FEW090 SCT200 19 12     63%     1016.3 1016.3      
Apr 18 15:53 W 30 16.09 Partly Cloudy FEW090 SCT220 21 11     54%     1016.9 1016.9      
Apr 18 14:53 WSW 21 16.09 Partly Cloudy FEW100 SCT220 21 11     54%     1018 1017.7      
Apr 18 13:53 WSW 21 16.09 Partly Cloudy FEW100 FEW140 SCT180 SCT250 20 12     61%     1018.6 1018.4      
Apr 18 12:53 W 21 16.09 Partly Cloudy FEW140 SCT180 SCT250 21 12     59%     1019 1018.7      
Apr 18 11:53 WSW 22 16.09 Mostly Cloudy FEW140 SCT180 BKN250 21 11     54%     1019.3 1019.3      
Apr 18 10:53 WSW 15 16.09 Mostly Cloudy FEW160 SCT180 BKN250 22 11     49%   22 1019.3 1019.2      
Apr 18 09:53 Calm 16.09 Mostly Cloudy FEW160 SCT180 BKN250 23 10     44%   22 1019.3 1019.3      
Apr 18 08:53 E 8 16.09 Mostly Cloudy FEW160 SCT180 BKN250 20 11     57%     1019.3 1019.3      
Apr 18 07:53 8 11.27 Mostly Cloudy FEW160 SCT180 BKN250 17 11     70%     1019.3 1019.3      
Apr 18 06:53 8 12.87 Mostly Cloudy FEW150 FEW180 BKN250 16 12     78%     1019.3 1019.1      
Apr 18 05:53 Calm 16.09 Mostly Cloudy FEW160 FEW200 BKN250 13 12     90%     1019 1018.7      
Apr 18 04:53 Calm 16.09 Mostly Clear FEW014 FEW200 13 11     86%     1019 1018.7      
Apr 18 03:53 Calm 16.09 Mostly Clear FEW014 FEW200 13 11     84%     1019 1018.8      
Apr 18 02:53 Calm 16.09 Mostly Clear FEW200 FEW250 14 12     84%     1019 1018.8      
Apr 18 01:53 W 9 16.09 Mostly Clear FEW200 FEW250 14 11     81%     1019.7 1019.3      
Apr 18 00:53 WSW 13 16.09 Partly Cloudy FEW200 SCT250 15 11     78%     1019.7 1019.6      
Apr 17 23:53 WSW 5 16.09 Mostly Cloudy FEW200 BKN250 15 10     72%     1019.7 1019.3      
Apr 17 22:53 5 16.09 Partly Cloudy FEW200 SCT250 16 10     69%     1019.3 1018.9      
Apr 17 21:53 SSW 5 16.09 Clear CLR 16 10     69%     1019.7 1019.3      
Apr 17 20:53 WNW 13 16.09 Mostly Clear FEW150 16 11     72%     1019.3 1019.2      
Apr 17 19:53 WSW 21 16.09 Mostly Clear FEW150 16 12     78%     1019.7 1019.5      
May 15 08:53 SSW 13 12.87 Mostly Cloudy BKN021 17 11     70%     1018 1017.7      
May 14 11:53 WSW 28 12.87 Partly Cloudy FEW027 SCT140 SCT180 18 12     65%     1016.3 1016      
May 14 09:09 9 11.27 Mostly Cloudy SCT018 BKN140 17 12     70%     1015.6        
May 11 17:53 ESE 11 16.09 Mostly Cloudy BKN025 BKN031 17 11     67%     1009.8 1009.6      
Jun 12 02:53 E 9 16.09 Mostly Clear FEW090 FEW220 14 11     81%     1014.9 1014.6      
Jun 10 23:53 SW 9 16.09 Clear   17 14     81%     1011.5 1011.3      
Jun 10 06:53 WSW 9 16.09 Cloudy BKN020 OVC026 17 14     86%     1011.9 1011.6      
Jun 10 05:53 WSW 5 16.09 Mostly Cloudy BKN023 17 14     84%     1011.5 1011.2      
Jun 09 15:53 WSW 22 16.09 Partly Cloudy FEW013 SCT100 21 16     73%     1012.9 1012.6      
Jun 09 12:53 WSW 22 14.48 Mostly Clear FEW017 FEW120 21 13     59%     1014.6 1014.2      
Jun 09 00:53 SSW 5 16.09 Mostly Clear FEW011 16 13     83%     1013.9 1013.7      
Jun 08 16:53 WSW 33 16.09 Clear and Windy   19 14     71%     1014.2 1014.2      
Jun 08 05:53 W 11 6.44 Clear   16 16     97%     1015.6 1015.3 0    
Jun 07 15:53 WSW 21 16.09 Mostly Clear FEW022 20 15     73%     1013.9 1013.7      
Jun 07 12:53 11 11.27 Cloudy OVC016 18 15     81%     1015.2 1015.1      
Jun 07 10:53 WSW 15 9.66 Haze SCT012 OVC014 17 15     87%     1014.9 1014.9     0
Jun 07 09:53 WSW 11 8.05 Fog/Mist BKN013 OVC018 17 15     87%     1014.6 1014.4